User: anonymous   Login
Location: *
(45.1333°S, 169.6333°W)
Time: 08:24:10
(UTC+00:00)
Language:

SJ 16-02 - Orbit

View from above orbital plane
View from above orbital plane
View from above satellite
View from above satellite

Ground track
Ground track

The orbit data is extracted from the following two-line orbital elements,

1 41634U 16043A   22224.77269889  .00000423  00000-0  51169-4 0  9995
2 41634  75.0029  42.0968 0008140 205.5829 154.4940 14.86240124332025
Epoch (UTC): 12 August 2022 18:32:41
Eccentricity: 0.0008140
inclination: 75.0029°
perigee height: 604 km
apogee height: 615 km
right ascension of ascending node: 42.0968°
argument of perigee: 205.5829°
revolutions per day: 14.86240124
mean anomaly at epoch: 154.4940°
orbit number at epoch: 33202

The dashed part of the orbit path shows where the satellite is in the earth's shadow,  

DLR